TimePST,TemperatureF,Dew PointF,Humidity,Sea Level PressureIn,VisibilityMPH,Wind Direction,Wind SpeedMPH,Gust SpeedMPH,PrecipitationIn,Events,Conditions,WindDirDegrees,DateUTC
12:52 AM,37.0,33.1,86,29.80,10.0,North,10.4,-,N/A,,Overcast,360,2013-03-06 08:52:00
1:52 AM,37.0,33.1,86,29.78,10.0,North,9.2,-,N/A,,Overcast,360,2013-03-06 09:52:00
2:52 AM,37.0,33.1,86,29.75,10.0,North,9.2,-,N/A,,Overcast,360,2013-03-06 10:52:00
3:52 AM,37.9,33.1,83,29.72,10.0,North,8.1,-,N/A,,Overcast,360,2013-03-06 11:52:00
4:52 AM,37.0,33.1,86,29.70,10.0,North,9.2,-,0.01,,Overcast,360,2013-03-06 12:52:00
5:06 AM,37.4,33.8,87,29.67,10.0,North,9.2,-,0.00,,Overcast,360,2013-03-06 13:06:00
5:14 AM,37.4,33.8,87,29.67,9.0,North,10.4,-,0.01,Rain,Light Rain,350,2013-03-06 13:14:00
5:52 AM,37.0,33.1,86,29.69,10.0,North,9.2,-,0.02,,Overcast,350,2013-03-06 13:52:00
6:52 AM,37.0,34.0,89,29.67,10.0,North,8.1,-,0.00,,Overcast,350,2013-03-06 14:52:00
6:59 AM,37.4,33.8,87,29.64,10.0,North,8.1,-,N/A,,Overcast,350,2013-03-06 14:59:00
7:52 AM,37.9,34.0,86,29.65,10.0,North,10.4,-,N/A,,Overcast,360,2013-03-06 15:52:00
8:52 AM,39.0,34.0,82,29.64,10.0,North,10.4,-,0.00,,Overcast,10,2013-03-06 16:52:00
9:52 AM,39.9,35.1,83,29.63,10.0,North,8.1,-,0.00,,Overcast,350,2013-03-06 17:52:00
10:52 AM,42.1,36.0,79,29.62,10.0,North,12.7,-,N/A,,Overcast,360,2013-03-06 18:52:00
11:52 AM,44.1,37.0,76,29.62,10.0,NNW,9.2,-,0.00,,Overcast,340,2013-03-06 19:52:00
12:52 PM,44.1,39.0,82,29.62,10.0,NNW,11.5,-,0.02,,Overcast,340,2013-03-06 20:52:00
1:38 PM,42.8,37.4,81,29.60,10.0,NNW,10.4,-,0.01,Rain,Light Rain,330,2013-03-06 21:38:00
1:52 PM,43.0,37.9,82,29.63,10.0,WNW,6.9,-,0.01,,Overcast,290,2013-03-06 21:52:00
2:39 PM,42.8,37.4,81,29.61,10.0,NW,9.2,-,N/A,,Overcast,310,2013-03-06 22:39:00
2:48 PM,42.8,37.4,81,29.62,10.0,NW,9.2,-,N/A,,Overcast,310,2013-03-06 22:48:00
2:52 PM,43.0,37.9,82,29.64,10.0,NW,8.1,-,0.00,Rain,Light Rain,310,2013-03-06 22:52:00
3:16 PM,42.8,37.4,81,29.62,8.0,West,10.4,-,0.01,Rain,Light Rain,280,2013-03-06 23:16:00
3:44 PM,41.0,37.4,87,29.63,10.0,West,9.2,-,0.01,,Overcast,270,2013-03-06 23:44:00
3:52 PM,41.0,36.0,82,29.66,10.0,West,9.2,-,0.01,,Overcast,260,2013-03-06 23:52:00
4:21 PM,39.2,35.6,87,29.65,10.0,West,8.1,-,0.00,Rain,Light Rain,280,2013-03-07 00:21:00
4:46 PM,39.2,35.6,87,29.66,5.0,SSW,5.8,-,0.04,Rain,Light Rain,200,2013-03-07 00:46:00
4:52 PM,39.9,36.0,86,29.69,6.0,SSW,8.1,-,0.06,Rain,Light Rain,210,2013-03-07 00:52:00
5:13 PM,39.2,35.6,87,29.67,8.0,SW,8.1,-,0.01,Rain,Light Rain,230,2013-03-07 01:13:00
5:52 PM,37.9,34.0,86,29.70,10.0,WSW,9.2,-,0.02,Rain,Light Rain,250,2013-03-07 01:52:00
6:23 PM,37.4,33.8,87,29.69,10.0,SW,9.2,-,0.01,,Overcast,230,2013-03-07 02:23:00
6:42 PM,35.6,30.2,81,29.70,5.0,WSW,10.4,-,0.02,Snow,Light Snow,240,2013-03-07 02:42:00
6:49 PM,33.8,30.2,87,29.70,2.5,SW,6.9,-,0.03,Snow,Light Snow,230,2013-03-07 02:49:00
6:52 PM,34.0,30.9,89,29.74,2.0,SW,6.9,-,0.03,Snow,Light Snow,230,2013-03-07 02:52:00
7:01 PM,33.8,30.2,87,29.71,1.8,SW,6.9,-,0.02,Snow,Light Snow,230,2013-03-07 03:01:00
7:49 PM,33.8,30.2,87,29.73,2.5,SW,8.1,-,0.07,Snow,Light Snow,220,2013-03-07 03:49:00
7:52 PM,34.0,30.9,89,29.76,3.0,SW,8.1,-,0.07,Snow,Light Snow,220,2013-03-07 03:52:00
8:52 PM,35.1,32.0,89,29.79,9.0,SSW,5.8,-,0.05,Rain,Light Rain,200,2013-03-07 04:52:00
9:52 PM,36.0,33.1,89,29.81,8.0,SSW,6.9,-,0.08,Rain,Light Rain,210,2013-03-07 05:52:00
10:52 PM,35.1,33.1,92,29.84,6.0,South,6.9,-,0.07,Rain,Light Rain,170,2013-03-07 06:52:00
11:43 PM,35.6,33.8,93,29.82,8.0,South,8.1,-,0.04,,Overcast,170,2013-03-07 07:43:00
11:52 PM,36.0,34.0,93,29.85,9.0,South,8.1,-,0.04,,Overcast,170,2013-03-07 07:52:00